User: anonymous   Login
Location: Newark
(39.6889°N, 28.1522°E)
Time: 07:27:56
(UTC+00:00)
Language:

CUBESAT XI-V - Orbit

View from above orbital plane
View from above orbital plane
View from above satellite
View from above satellite

Ground track
Ground track

The orbit data is extracted from the following two-line orbital elements,

1 28895U 05043F   19344.17167277  .00000087  00000-0  25575-4 0  9996
2 28895  97.9831 121.1933 0017364 157.2857 202.9118 14.63718829753004
Epoch (UTC): 10 December 2019 04:07:12
Eccentricity: 0.0017364
inclination: 97.9831°
perigee height: 669 km
apogee height: 693 km
right ascension of ascending node: 121.1933°
argument of perigee: 157.2857°
revolutions per day: 14.63718829
mean anomaly at epoch: 202.9118°
orbit number at epoch: 75300

The dashed part of the orbit path shows where the satellite is in the earth's shadow,  

DLR